�������l�o���
Date,Time,MP-1(��Sv/h),MP-2(��Sv/h),MP-3(��Sv/h),MP-4(��Sv/h),MP-5(��Sv/h),MP-6(��Sv/h),MP-7(��Sv/h),MP-8(��Sv/h),����,����(m/s),���J
2017/06/30,00:00,1.008,1.619,1.075,1.918,1.325,0.534,0.977,0.901,�k��,0.9,��
2017/06/30,00:10,1.010,1.617,1.075,1.919,1.327,0.534,0.978,0.901,�k��,0.9,��
2017/06/30,00:20,1.010,1.619,1.074,1.920,1.326,0.535,0.978,0.901,�k�k��,0.6,��
2017/06/30,00:30,1.010,1.621,1.077,1.917,1.327,0.534,0.977,0.900,-,CALM,��
2017/06/30,00:40,1.010,1.620,1.075,1.919,1.325,0.534,0.978,0.900,��,0.6,��
2017/06/30,00:50,1.008,1.624,1.075,1.918,1.325,0.534,0.976,0.902,-,CALM,��
2017/06/30,01:00,1.009,1.621,1.077,1.919,1.326,0.534,0.978,0.901,-,CALM,��
2017/06/30,01:10,1.011,1.621,1.076,1.917,1.325,0.535,0.978,0.901,-,CALM,��
2017/06/30,01:20,1.010,1.620,1.077,1.917,1.326,0.535,0.978,0.901,�쐼,0.9,��
2017/06/30,01:30,1.012,1.618,1.075,1.919,1.325,0.534,0.976,0.902,-,CALM,��
2017/06/30,01:40,1.010,1.620,1.076,1.920,1.325,0.535,0.976,0.902,��쐼,1.2,��
2017/06/30,01:50,1.009,1.621,1.077,1.918,1.323,0.534,0.976,0.900,��쐼,0.9,��
2017/06/30,02:00,1.009,1.618,1.075,1.918,1.324,0.536,0.977,0.901,��쐼,0.9,��
2017/06/30,02:10,1.010,1.620,1.075,1.916,1.326,0.535,0.977,0.900,-,CALM,��
2017/06/30,02:20,1.010,1.622,1.074,1.917,1.325,0.534,0.976,0.902,��쓌,1.1,��
2017/06/30,02:30,1.010,1.620,1.075,1.916,1.326,0.536,0.977,0.900,��쓌,1.7,��
2017/06/30,02:40,1.009,1.622,1.076,1.919,1.326,0.535,0.976,0.903,��,0.9,��
2017/06/30,02:50,1.010,1.619,1.075,1.920,1.326,0.534,0.977,0.903,-,CALM,��
2017/06/30,03:00,1.010,1.617,1.075,1.919,1.326,0.535,0.976,0.902,��쐼,0.9,��
2017/06/30,03:10,1.010,1.618,1.075,1.919,1.327,0.533,0.978,0.901,��,2.0,��
2017/06/30,03:20,1.011,1.619,1.075,1.916,1.326,0.535,0.977,0.900,��쐼,3.0,��
2017/06/30,03:30,1.008,1.618,1.074,1.920,1.328,0.535,0.978,0.902,��쐼,4.2,��
2017/06/30,03:40,1.009,1.622,1.075,1.920,1.327,0.533,0.976,0.902,��,3.3,��
2017/06/30,03:50,1.011,1.619,1.075,1.917,1.326,0.532,0.976,0.901,��,1.7,��
2017/06/30,04:00,1.010,1.618,1.074,1.918,1.327,0.534,0.979,0.902,��쓌,1.5,��
2017/06/30,04:10,1.010,1.616,1.074,1.920,1.326,0.535,0.977,0.901,��,0.8,��
2017/06/30,04:20,1.010,1.618,1.076,1.918,1.325,0.534,0.977,0.901,-,CALM,��
2017/06/30,04:30,1.008,1.616,1.074,1.918,1.325,0.533,0.978,0.901,��쓌,0.9,��
2017/06/30,04:40,1.010,1.619,1.078,1.917,1.325,0.534,0.976,0.900,�쓌,1.2,��
2017/06/30,04:50,1.007,1.618,1.074,1.917,1.323,0.532,0.977,0.902,-,CALM,��
2017/06/30,05:00,1.009,1.619,1.076,1.917,1.325,0.533,0.976,0.902,-,CALM,��
2017/06/30,05:10,1.009,1.617,1.076,1.918,1.326,0.533,0.977,0.900,-,CALM,��
2017/06/30,05:20,1.010,1.619,1.073,1.918,1.325,0.534,0.977,0.901,���k��,0.6,��
2017/06/30,05:30,1.006,1.618,1.076,1.915,1.325,0.534,0.978,0.902,���쐼,0.6,��
2017/06/30,05:40,1.008,1.621,1.075,1.917,1.325,0.535,0.977,0.905,-,CALM,��
2017/06/30,05:50,1.008,1.619,1.076,1.916,1.326,0.535,0.976,0.902,-,CALM,�L
2017/06/30,06:00,1.010,1.620,1.075,1.919,1.324,0.533,0.976,0.900,�k�k��,0.9,�L
2017/06/30,06:10,1.009,1.620,1.075,1.920,1.325,0.535,0.977,0.902,�k�k��,1.5,�L
2017/06/30,06:20,1.009,1.618,1.076,1.914,1.322,0.534,0.976,0.899,�k�k��,1.2,�L
2017/06/30,06:30,1.008,1.618,1.073,1.919,1.323,0.534,0.976,0.901,�k,0.9,�L
2017/06/30,06:40,1.011,1.616,1.076,1.920,1.323,0.534,0.977,0.902,�k�k��,1.1,�L
2017/06/30,06:50,1.011,1.620,1.075,1.918,1.324,0.532,0.976,0.901,-,CALM,�L
2017/06/30,07:00,1.009,1.619,1.076,1.921,1.326,0.534,0.976,0.901,���k��,0.6,��
2017/06/30,07:10,1.008,1.619,1.075,1.919,1.327,0.533,0.976,0.902,�k,0.8,��
2017/06/30,07:20,1.007,1.616,1.076,1.918,1.325,0.532,0.975,0.898,�k�k��,0.6,��
2017/06/30,07:30,1.007,1.616,1.075,1.919,1.324,0.533,0.977,0.898,-,CALM,��
2017/06/30,07:40,1.006,1.614,1.075,1.918,1.325,0.532,0.975,0.900,��,0.6,��
2017/06/30,07:50,1.006,1.615,1.075,1.919,1.324,0.531,0.973,0.900,-,CALM,��
2017/06/30,08:00,1.007,1.616,1.076,1.919,1.324,0.529,0.976,0.901,-,CALM,��
2017/06/30,08:10,1.007,1.615,1.077,1.920,1.326,0.530,0.974,0.899,���쐼,0.8,��
2017/06/30,08:20,1.007,1.617,1.074,1.918,1.324,0.528,0.977,0.899,��,1.1,��
2017/06/30,08:30,1.010,1.615,1.074,1.922,1.326,0.531,0.976,0.900,��쐼,1.4,��
2017/06/30,08:40,1.008,1.618,1.074,1.918,1.323,0.531,0.976,0.899,��,1.7,��
2017/06/30,08:50,1.009,1.617,1.073,1.917,1.321,0.531,0.977,0.899,��,1.1,��
2017/06/30,09:00,1.007,1.613,1.075,1.918,1.321,0.532,0.978,0.898,��,2.0,��
2017/06/30,09:10,1.009,1.616,1.073,1.920,1.323,0.533,0.976,0.899,��쓌,1.2,��
2017/06/30,09:20,1.009,1.618,1.072,1.918,1.325,0.532,0.977,0.899,�쓌,1.2,��
2017/06/30,09:30,1.008,1.614,1.073,1.918,1.323,0.532,0.978,0.900,���쓌,0.9,��
2017/06/30,09:40,1.009,1.617,1.074,1.919,1.323,0.531,0.976,0.901,��쓌,0.8,��
2017/06/30,09:50,1.010,1.616,1.069,1.917,1.322,0.532,0.979,0.898,��,2.3,�L
2017/06/30,10:00,1.010,1.617,1.075,1.919,1.324,0.533,0.978,0.899,��,1.9,��
2017/06/30,10:10,1.011,1.616,1.076,1.921,1.323,0.532,0.977,0.900,��,2.6,��
2017/06/30,10:20,1.010,1.613,1.076,1.919,1.325,0.533,0.977,0.900,��쓌,3.0,��
2017/06/30,10:30,1.012,1.615,1.074,1.919,1.326,0.534,0.976,0.901,��쓌,4.1,��
2017/06/30,10:40,1.012,1.613,1.075,1.921,1.329,0.531,0.978,0.900,��쓌,4.6,��
2017/06/30,10:50,1.011,1.617,1.076,1.922,1.323,0.533,0.979,0.898,��,4.3,��
2017/06/30,11:00,1.011,1.621,1.076,1.919,1.325,0.532,0.979,0.901,��쓌,6.0,��
2017/06/30,11:10,1.015,1.619,1.077,1.918,1.324,0.534,0.980,0.901,��쓌,6.5,��
2017/06/30,11:20,1.012,1.618,1.078,1.921,1.325,0.533,0.978,0.900,��,7.4,��
2017/06/30,11:30,1.014,1.620,1.076,1.919,1.327,0.534,0.978,0.901,��,7.7,��
2017/06/30,11:40,1.014,1.620,1.075,1.921,1.328,0.534,0.979,0.899,��쓌,9.0,��
2017/06/30,11:50,1.014,1.617,1.078,1.921,1.328,0.535,0.979,0.901,��,9.7,��
2017/06/30,12:00,1.013,1.619,1.078,1.922,1.331,0.534,0.980,0.900,��,8.4,��
2017/06/30,12:10,1.017,1.621,1.077,1.921,1.333,0.534,0.980,0.900,��,9.8,��
2017/06/30,12:20,1.014,1.622,1.079,1.920,1.329,0.534,0.981,0.901,��,10.2,��
2017/06/30,12:30,1.013,1.623,1.077,1.924,1.330,0.534,0.981,0.900,��,8.9,��
2017/06/30,12:40,1.016,1.623,1.077,1.923,1.331,0.534,0.980,0.901,��,8.8,��
2017/06/30,12:50,1.013,1.621,1.078,1.920,1.331,0.537,0.979,0.900,��,8.4,��
2017/06/30,13:00,1.013,1.622,1.077,1.921,1.331,0.534,0.979,0.901,��,7.5,��
2017/06/30,13:10,1.016,1.622,1.079,1.922,1.330,0.536,0.980,0.902,��,7.5,��
2017/06/30,13:20,1.017,1.621,1.078,1.923,1.332,0.535,0.981,0.900,��,6.3,��
2017/06/30,13:30,1.016,1.619,1.081,1.925,1.332,0.535,0.982,0.902,��,6.4,��
2017/06/30,13:40,1.018,1.623,1.080,1.923,1.332,0.535,0.980,0.901,��,6.3,��
2017/06/30,13:50,1.016,1.623,1.079,1.923,1.328,0.535,0.982,0.900,��,6.8,��
2017/06/30,14:00,1.016,1.624,1.079,1.922,1.332,0.534,0.980,0.901,��,6.3,��
2017/06/30,14:10,1.018,1.622,1.080,1.923,1.331,0.535,0.981,0.901,��,7.6,��
2017/06/30,14:20,1.015,1.625,1.079,1.926,1.335,0.538,0.982,0.902,��,8.5,��
2017/06/30,14:30,1.016,1.625,1.081,1.926,1.334,0.536,0.982,0.902,��,6.5,��
2017/06/30,14:40,1.016,1.629,1.081,1.927,1.335,0.538,0.981,0.902,��,7.1,��
2017/06/30,14:50,1.019,1.627,1.082,1.927,1.334,0.536,0.982,0.901,��,7.8,��
2017/06/30,15:00,1.018,1.628,1.081,1.926,1.334,0.537,0.982,0.904,��,6.5,��
2017/06/30,15:10,1.017,1.630,1.083,1.927,1.334,0.536,0.983,0.902,��,7.6,��
2017/06/30,15:20,1.017,1.628,1.083,1.927,1.337,0.537,0.983,0.902,��,7.3,��
2017/06/30,15:30,1.018,1.627,1.080,1.925,1.338,0.538,0.983,0.902,��,6.3,��
2017/06/30,15:40,1.017,1.627,1.081,1.927,1.337,0.538,0.982,0.901,��,5.3,��
2017/06/30,15:50,1.015,1.629,1.081,1.927,1.339,0.537,0.982,0.903,��,5.3,��
2017/06/30,16:00,1.017,1.630,1.080,1.929,1.340,0.539,0.983,0.902,��,3.7,��
2017/06/30,16:10,1.017,1.629,1.081,1.931,1.338,0.540,0.981,0.903,��,4.7,��
2017/06/30,16:20,1.019,1.630,1.081,1.932,1.336,0.541,0.983,0.902,��쐼,4.6,��
2017/06/30,16:30,1.018,1.630,1.082,1.935,1.336,0.538,0.981,0.903,��쐼,4.1,��
2017/06/30,16:40,1.017,1.629,1.083,1.931,1.338,0.540,0.983,0.903,��쐼,4.2,��
2017/06/30,16:50,1.019,1.630,1.084,1.931,1.338,0.539,0.982,0.901,��쐼,5.3,��
2017/06/30,17:00,1.019,1.631,1.084,1.930,1.338,0.539,0.981,0.903,��쐼,4.2,��
2017/06/30,17:10,1.016,1.630,1.081,1.929,1.338,0.538,0.981,0.903,��쐼,2.6,��
2017/06/30,17:20,1.016,1.630,1.083,1.930,1.336,0.538,0.983,0.902,��쐼,2.2,��
2017/06/30,17:30,1.018,1.628,1.078,1.927,1.334,0.538,0.981,0.904,��쐼,1.7,��
2017/06/30,17:40,1.017,1.629,1.084,1.928,1.335,0.539,0.981,0.902,���쐼,1.2,��
2017/06/30,17:50,1.017,1.630,1.085,1.928,1.338,0.538,0.979,0.904,��,1.2,��
2017/06/30,18:00,1.019,1.629,1.084,1.927,1.338,0.538,0.981,0.905,���k��,0.8,��
2017/06/30,18:10,1.020,1.628,1.084,1.929,1.339,0.539,0.981,0.904,�쐼,0.8,��
2017/06/30,18:20,1.020,1.631,1.087,1.931,1.339,0.540,0.983,0.905,�쐼,0.9,�L
2017/06/30,18:30,1.020,1.630,1.084,1.927,1.339,0.538,0.981,0.902,��,0.9,�L
2017/06/30,18:40,1.020,1.626,1.085,1.931,1.338,0.541,0.982,0.906,��,0.6,�L
2017/06/30,18:50,1.020,1.632,1.085,1.929,1.339,0.539,0.984,0.905,��,0.9,�L
2017/06/30,19:00,1.020,1.630,1.085,1.930,1.339,0.540,0.983,0.904,��,0.8,�L
2017/06/30,19:10,1.019,1.630,1.085,1.934,1.338,0.540,0.984,0.904,���쐼,0.6,�L
2017/06/30,19:20,1.021,1.631,1.087,1.932,1.338,0.540,0.983,0.904,���쐼,0.8,�L
2017/06/30,19:30,1.020,1.631,1.084,1.931,1.337,0.539,0.984,0.905,�쐼,1.1,�L
2017/06/30,19:40,1.020,1.626,1.085,1.930,1.335,0.540,0.984,0.904,���쐼,1.5,�L
2017/06/30,19:50,1.019,1.627,1.086,1.930,1.335,0.542,0.985,0.906,�쐼,1.7,�L
2017/06/30,20:00,1.014,1.624,1.083,1.931,1.332,0.542,0.982,0.907,���쐼,1.5,�L
2017/06/30,20:10,1.015,1.624,1.086,1.929,1.334,0.542,0.984,0.904,���쐼,1.9,��
2017/06/30,20:20,1.016,1.621,1.085,1.929,1.336,0.540,0.982,0.905,�쐼,1.2,�L
2017/06/30,20:30,1.018,1.624,1.086,1.931,1.330,0.541,0.982,0.906,��쐼,1.5,�L
2017/06/30,20:40,1.017,1.623,1.082,1.929,1.332,0.539,0.980,0.905,�쐼,1.2,��
2017/06/30,20:50,1.018,1.623,1.085,1.928,1.333,0.541,0.982,0.905,�쐼,1.2,��
2017/06/30,21:00,1.015,1.619,1.084,1.928,1.332,0.541,0.981,0.904,�쐼,1.2,��
2017/06/30,21:10,1.017,1.620,1.082,1.928,1.332,0.539,0.980,0.906,�쐼,1.5,��
2017/06/30,21:20,1.015,1.622,1.082,1.928,1.330,0.538,0.980,0.904,���쐼,1.7,��
2017/06/30,21:30,1.016,1.621,1.083,1.930,1.331,0.539,0.983,0.905,���쐼,1.7,��
2017/06/30,21:40,1.015,1.620,1.082,1.929,1.330,0.539,0.980,0.905,��쐼,2.0,��
2017/06/30,21:50,1.017,1.623,1.083,1.929,1.330,0.539,0.982,0.905,�쐼,1.2,��
2017/06/30,22:00,1.017,1.622,1.083,1.926,1.330,0.540,0.980,0.904,�쐼,1.9,��
2017/06/30,22:10,1.015,1.621,1.082,1.927,1.329,0.538,0.983,0.905,���쐼,2.3,��
2017/06/30,22:20,1.015,1.618,1.082,1.929,1.330,0.537,0.981,0.903,�쐼,3.4,��
2017/06/30,22:30,1.014,1.619,1.082,1.926,1.332,0.538,0.981,0.904,���쐼,3.3,��
2017/06/30,22:40,1.014,1.621,1.081,1.927,1.330,0.539,0.983,0.904,���쐼,3.4,��
2017/06/30,22:50,1.015,1.618,1.081,1.927,1.331,0.537,0.983,0.902,�쐼,4.1,��
2017/06/30,23:00,1.014,1.618,1.081,1.929,1.330,0.538,0.981,0.905,�쐼,4.1,��
2017/06/30,23:10,1.016,1.619,1.079,1.927,1.329,0.539,0.981,0.905,�쐼,5.0,��
2017/06/30,23:20,1.016,1.623,1.080,1.929,1.327,0.537,0.979,0.906,���쐼,5.5,��
2017/06/30,23:30,1.012,1.618,1.081,1.926,1.330,0.537,0.981,0.904,���쐼,5.3,��
2017/06/30,23:40,1.011,1.619,1.081,1.925,1.327,0.539,0.980,0.903,���쐼,5.4,��
2017/06/30,23:50,1.013,1.622,1.079,1.928,1.330,0.536,0.981,0.905,���쐼,4.7,��
